TimeMST,TemperatureF,Dew PointF,Humidity,Sea Level PressureIn,VisibilityMPH,Wind Direction,Wind SpeedMPH,Gust SpeedMPH,PrecipitationIn,Events,Conditions,WindDirDegrees,DateUTC
12:53 AM,-6.0,-11.9,75,30.50,10.0,NW,5.8,-,N/A,,Clear,310,2014-02-25 07:53:00
1:53 AM,-5.1,-9.9,80,30.49,10.0,West,8.1,-,N/A,,Clear,280,2014-02-25 08:53:00
2:53 AM,-2.9,-8.0,79,30.48,10.0,WNW,3.5,-,N/A,,Clear,290,2014-02-25 09:53:00
3:53 AM,1.0,-5.1,75,30.46,10.0,West,10.4,-,N/A,,Clear,280,2014-02-25 10:53:00
4:53 AM,-0.9,-7.1,75,30.48,10.0,WNW,10.4,-,N/A,,Clear,290,2014-02-25 11:53:00
5:53 AM,-5.1,-9.9,80,30.51,10.0,WNW,6.9,-,N/A,,Clear,300,2014-02-25 12:53:00
6:53 AM,-4.0,-9.0,79,30.53,10.0,WNW,5.8,-,N/A,,Clear,300,2014-02-25 13:53:00
7:53 AM,1.9,-4.0,76,30.54,10.0,NW,12.7,-,N/A,,Clear,310,2014-02-25 14:53:00
8:53 AM,3.9,-5.1,66,30.56,10.0,NW,17.3,27.6,N/A,,Clear,320,2014-02-25 15:53:00
9:53 AM,6.1,-4.0,63,30.58,10.0,NNW,20.7,-,N/A,,Clear,330,2014-02-25 16:53:00
10:53 AM,8.1,-5.1,55,30.59,10.0,NNW,21.9,27.6,N/A,,Clear,330,2014-02-25 17:53:00
11:53 AM,9.0,-4.0,56,30.58,10.0,NW,20.7,25.3,N/A,,Clear,320,2014-02-25 18:53:00
12:53 PM,10.0,-2.9,56,30.58,10.0,NNW,16.1,-,N/A,,Partly Cloudy,340,2014-02-25 19:53:00
1:53 PM,9.0,-4.0,56,30.59,10.0,NW,16.1,21.9,N/A,,Scattered Clouds,320,2014-02-25 20:53:00
2:10 PM,10.0,-4.0,53,30.38,10.0,NNW,20.7,-,N/A,,Mostly Cloudy,330,2014-02-25 21:10:00
2:34 PM,9.0,-4.0,56,30.38,10.0,NW,15.0,-,N/A,,Scattered Clouds,320,2014-02-25 21:34:00
2:53 PM,8.1,-4.0,58,30.59,10.0,NW,18.4,25.3,N/A,,Scattered Clouds,320,2014-02-25 21:53:00
3:53 PM,8.1,-5.1,55,30.57,10.0,WNW,18.4,-,N/A,,Partly Cloudy,300,2014-02-25 22:53:00
4:53 PM,5.0,-5.1,63,30.58,10.0,WNW,15.0,-,N/A,,Clear,290,2014-02-25 23:53:00
5:53 PM,-0.9,-9.0,69,30.60,10.0,West,8.1,-,N/A,,Clear,280,2014-02-26 00:53:00
6:53 PM,-7.1,-11.9,79,30.59,10.0,WNW,5.8,-,N/A,,Clear,300,2014-02-26 01:53:00
7:53 PM,-9.0,-13.0,83,30.56,10.0,Calm,Calm,-,N/A,,Clear,0,2014-02-26 02:53:00
8:53 PM,-9.0,-14.1,79,30.53,10.0,West,8.1,-,N/A,,Clear,280,2014-02-26 03:53:00
9:53 PM,-9.9,-15.0,78,30.50,10.0,West,6.9,-,N/A,,Clear,280,2014-02-26 04:53:00
10:53 PM,-9.9,-15.0,78,30.46,10.0,West,6.9,-,N/A,,Clear,260,2014-02-26 05:53:00
11:53 PM,-9.9,-15.0,78,30.41,10.0,West,3.5,-,N/A,,Clear,280,2014-02-26 06:53:00